Cambridge, MD

10:53 PM EST on November 18, 2017 (GMT -0500)
Cambridge-Dorchester

Weather History for KCGE - March, 2014

Change the Weather History Date:

Monday, March 3, 2014

  Actual Average (KESN) Record (KESN)
Temperature  
Mean Temperature 29 °F -  
Max Temperature 37 °F 55 °F 72 °F (1972)
Min Temperature 21 °F 34 °F 14 °F (2009)
Degree Days  
Heating Degree Days 36    
Moisture  
Dew Point 20 °F    
Average Humidity 77    
Maximum Humidity 100    
Minimum Humidity 50    
Precipitation  
Precipitation 0.00 in - - ()
Sea Level Pressure  
Sea Level Pressure 30.17 in    
Wind  
Wind Speed 4 mph (North)    
Max Wind Speed 13 mph    
Max Gust Speed 16 mph    
Visibility 5 miles    
Events      
Averages and records for this station are not official NWS values.
T = Trace of Precipitation, MM = Missing Value Source: NWS Daily Summary

Daily Weather History Graph

Daily Weather History Graph

Search for Another Location

Airport or City:

Trip Planner

Search our weather history database for the weather conditions in past years. The results will help you decide how hot, cold, wet, or windy it might be!

Date:

Astronomy

Mar. 03, 2014 Rise Set
Actual Time 6:33 AM EST 5:59 PM EST
Civil Twilight 6:06 AM EST 6:25 PM EST
Nautical Twilight 5:36 AM EST 6:56 PM EST
Astronomical Twilight 5:05 AM EST 7:27 PM EST
Moon 7:42 AM EST (3/3) 8:57 PM EST (3/3)
Length of Visible Light 12h 18m
Length of Day
11h 25m
Waxing Crescent, 8% of the Moon is Illuminated
Mar 3
Waxing Crescent
Mar 8
First Quarter
Mar 16
Full
Mar 23
Last Quarter
Mar 30
New

Hourly Weather History & Observations

Time (EST) Temp. Windchill Dew Point Humidity Pressure Visibility Wind Dir Wind Speed Gust Speed Precip Events Conditions
12:10 AM 37.4 °F 32.1 °F 35.6 °F 93% 29.97 in 2.5 mi North 6.9 mph - N/A   Overcast
12:30 AM 37.4 °F 32.1 °F 35.6 °F 93% 29.97 in 3.0 mi North 6.9 mph - N/A   Overcast
12:50 AM 37.4 °F 30.8 °F 35.6 °F 93% 29.98 in 4.0 mi North 9.2 mph - N/A   Overcast
1:09 AM 37.4 °F 30.8 °F 35.6 °F 93% 29.98 in 4.0 mi North 9.2 mph - N/A   Overcast
1:30 AM 37.4 °F 31.4 °F 35.6 °F 93% 29.98 in 3.0 mi North 8.1 mph - N/A   Overcast
1:50 AM 37.4 °F 29.3 °F 35.6 °F 93% 29.97 in 2.5 mi North 12.7 mph 16.1 mph N/A   Overcast
2:10 AM 35.6 °F 29.2 °F 33.8 °F 93% 29.98 in 3.0 mi North 8.1 mph - N/A   Overcast
2:30 AM 35.6 °F 28.6 °F 33.8 °F 93% 29.97 in 3.0 mi North 9.2 mph - N/A   Overcast
2:50 AM 35.6 °F 28.6 °F 33.8 °F 93% 29.97 in 3.0 mi North 9.2 mph - N/A   Overcast
3:10 AM 35.6 °F 28.0 °F 33.8 °F 93% 29.98 in 3.0 mi North 10.4 mph - N/A   Overcast
3:30 AM 35.6 °F 29.2 °F 33.8 °F 93% 29.98 in 4.0 mi North 8.1 mph - N/A   Overcast
3:50 AM 33.8 °F 26.4 °F 32.0 °F 93% 29.99 in 4.0 mi North 9.2 mph - N/A   Mostly Cloudy
4:10 AM 33.8 °F 25.3 °F 32.0 °F 93% 29.98 in 5.0 mi North 11.5 mph - N/A   Overcast
4:30 AM 33.8 °F 27.0 °F 32.0 °F 93% 30.03 in 4.0 mi North 8.1 mph - N/A   Overcast
4:50 AM 33.8 °F - 32.0 °F 93% 30.00 in 4.0 mi Calm Calm - N/A   Overcast
5:10 AM 33.8 °F - 32.0 °F 93% 30.04 in 3.0 mi Calm Calm - N/A   Overcast
5:30 AM 33.8 °F - 32.0 °F 93% 30.02 in 2.5 mi Calm Calm - N/A   Overcast
5:50 AM 32.0 °F - 32.0 °F 100% 30.05 in 5.0 mi Calm Calm - N/A   Overcast
6:10 AM 32.0 °F - 30.2 °F 93% 30.06 in 7.0 mi Calm Calm - N/A   Mostly Cloudy
6:30 AM 32.0 °F - 30.2 °F 93% 30.07 in 5.0 mi Calm Calm - N/A   Mostly Cloudy
6:50 AM 32.0 °F - 30.2 °F 93% 30.09 in 1.0 mi Calm Calm - N/A   Overcast
7:10 AM 30.2 °F - 28.4 °F 93% 30.10 in 4.0 mi Calm Calm - N/A   Overcast
7:31 AM 30.2 °F - 28.4 °F 93% 30.13 in 1.0 mi Calm Calm - N/A   Overcast
7:51 AM 30.2 °F - 26.6 °F 86% 30.15 in 0.8 mi Calm Calm - N/A   Overcast
8:11 AM 28.4 °F - 26.6 °F 93% 30.15 in 1.0 mi Calm Calm - N/A   Overcast
8:31 AM 28.4 °F - 26.6 °F 93% 30.16 in 0.8 mi Calm Calm - N/A   Overcast
8:51 AM 28.4 °F - 24.8 °F 86% 30.17 in 0.5 mi Calm Calm - N/A   Overcast
9:11 AM 28.4 °F - 24.8 °F 86% 30.16 in 1.0 mi Calm Calm - N/A   Overcast
9:31 AM 24.8 °F - 21.2 °F 86% 30.17 in 0.8 mi Calm Calm - N/A   Overcast
9:51 AM 24.8 °F - 21.2 °F 86% 30.18 in 0.8 mi Calm Calm - N/A   Overcast
10:11 AM 23.0 °F - 21.2 °F 93% 30.19 in 1.2 mi Calm Calm - N/A   Overcast
10:31 AM 23.0 °F - 19.4 °F 86% 30.19 in 0.8 mi Calm Calm - N/A   Overcast
10:51 AM 23.0 °F - 19.4 °F 86% 30.19 in 0.8 mi Calm Calm - N/A   Overcast
11:11 AM 23.0 °F - 19.4 °F 86% 30.20 in 1.0 mi Calm Calm - N/A   Overcast
11:31 AM 23.0 °F - 19.4 °F 86% 30.20 in 1.5 mi Calm Calm - N/A   Overcast
11:51 AM 23.0 °F - 17.6 °F 80% 30.20 in 3.0 mi Calm Calm - N/A   Overcast
12:11 PM 23.0 °F - 17.6 °F 80% 30.20 in 1.8 mi Calm Calm - N/A   Overcast
12:31 PM 23.0 °F - 17.6 °F 80% 30.20 in 2.0 mi Calm Calm - N/A   Overcast
12:51 PM 23.0 °F - 17.6 °F 80% 30.20 in 1.0 mi Calm Calm - N/A   Overcast
1:11 PM 23.0 °F - 17.6 °F 80% 30.20 in 2.0 mi Calm Calm - N/A   Overcast
1:31 PM 23.0 °F - 17.6 °F 80% 30.20 in 1.8 mi Calm Calm - N/A   Overcast
1:51 PM 23.0 °F - 17.6 °F 80% 30.18 in 1.5 mi Calm Calm - N/A   Overcast
2:11 PM 23.0 °F - 17.6 °F 80% 30.18 in 1.2 mi Calm Calm - N/A   Overcast
2:31 PM 23.0 °F - 17.6 °F 80% 30.19 in 1.0 mi Calm Calm - N/A   Overcast
2:51 PM 23.0 °F - 17.6 °F 80% 30.20 in 2.0 mi Calm Calm - N/A   Overcast
3:11 PM 23.0 °F - 17.6 °F 80% 30.20 in 4.0 mi Calm Calm - N/A   Overcast
3:31 PM 23.0 °F - 17.6 °F 80% 30.21 in 1.8 mi Calm Calm - N/A   Overcast
3:51 PM 23.0 °F - 15.8 °F 74% 30.22 in 4.0 mi Calm Calm - N/A   Overcast
4:12 PM 23.0 °F - 14.0 °F 68% 30.23 in 5.0 mi Calm Calm - N/A   Overcast
4:32 PM 23.0 °F - 12.2 °F 63% 30.23 in 10.0 mi Calm Calm - N/A   Mostly Cloudy
4:52 PM 23.0 °F - 10.4 °F 59% 30.24 in 10.0 mi Calm Calm - N/A   Scattered Clouds
5:12 PM 23.0 °F - 10.4 °F 59% 30.23 in 10.0 mi Calm Calm - N/A   Clear
5:32 PM 23.0 °F - 10.4 °F 59% 30.25 in 10.0 mi Calm Calm - N/A   Clear
5:52 PM 23.0 °F - 8.6 °F 54% 30.24 in 10.0 mi Calm Calm - N/A   Clear
6:12 PM 23.0 °F - 8.6 °F 54% 30.27 in 10.0 mi Calm Calm - N/A   Clear
6:32 PM 23.0 °F - 8.6 °F 54% 30.28 in 10.0 mi Calm Calm - N/A   Scattered Clouds
6:52 PM 23.0 °F - 8.6 °F 54% 30.28 in 10.0 mi Calm Calm - N/A   Clear
7:12 PM 23.0 °F - 8.6 °F 54% 30.30 in 10.0 mi Calm Calm - N/A   Clear
7:32 PM 23.0 °F - 8.6 °F 54% 30.31 in 10.0 mi Calm Calm - N/A   Clear
7:52 PM 23.0 °F - 8.6 °F 54% 30.32 in 10.0 mi Calm Calm - N/A   Clear
8:12 PM 23.0 °F - 8.6 °F 54% 30.32 in 10.0 mi Calm Calm - N/A   Clear
8:32 PM 23.0 °F - 8.6 °F 54% 30.33 in 10.0 mi Calm Calm - N/A   Clear
8:52 PM 23.0 °F - 8.6 °F 54% 30.33 in 10.0 mi Calm Calm - N/A   Clear
9:12 PM 23.0 °F - 8.6 °F 54% 30.33 in 10.0 mi Calm Calm - N/A   Clear
9:32 PM 21.2 °F - 8.6 °F 58% 30.33 in 10.0 mi Calm Calm - N/A   Clear
9:52 PM 21.2 °F - 8.6 °F 58% 30.33 in 10.0 mi Calm Calm - N/A   Clear
10:12 PM 21.2 °F - 6.8 °F 54% 30.33 in 10.0 mi Calm Calm - N/A   Clear
10:32 PM 21.2 °F - 6.8 °F 54% 30.34 in 10.0 mi Calm Calm - N/A   Clear
10:52 PM 21.2 °F - 6.8 °F 54% 30.34 in 10.0 mi Calm Calm - N/A   Clear
11:12 PM 21.2 °F - 5.0 °F 50% 30.34 in 10.0 mi Calm Calm - N/A   Clear
11:32 PM 21.2 °F - 5.0 °F 50% 30.33 in 10.0 mi Calm Calm - N/A   Clear
11:52 PM 21.2 °F - 5.0 °F 50% 30.33 in 10.0 mi Calm Calm - N/A   Clear